Stevens Point, WI

8:21 PM CST on December 12, 2019 (GMT -0600)
Stevens Point Municipal

Weather History for KSTE - July, 2019

Change the Weather History Date:

Wednesday, July 17, 2019

  Actual Average Record
Temperature  
Mean Temperature 73 °F -  
Max Temperature 81 °F 83 °F 96 °F (2005)
Min Temperature 65 °F 61 °F 42 °F (2014)
Cooling Degree Days 8    
Growing Degree Days 23 (Base 50)    
Moisture  
Dew Point 69 °F    
Average Humidity 87    
Maximum Humidity 100    
Minimum Humidity 66    
Precipitation  
Precipitation 0.00 in - - ()
Sea Level Pressure  
Sea Level Pressure 29.92 in    
Wind  
Wind Speed 4 mph (ESE)    
Max Wind Speed 14 mph    
Max Gust Speed 18 mph    
Visibility 10 miles    
Events      
Averages and records for this station are not official NWS values.
T = Trace of Precipitation, MM = Missing Value Source: NWS Daily Summary

Daily Weather History Graph

Daily Weather History Graph

Search for Another Location

Airport or City:

Astronomy

Jul. 17, 2019 Rise Set
Actual Time 5:29 AM CDT 8:39 PM CDT
Civil Twilight 4:53 AM CDT 9:14 PM CDT
Nautical Twilight 4:08 AM CDT 9:59 PM CDT
Astronomical Twilight 3:12 AM CDT 10:54 PM CDT
Moon 9:26 PM CDT (7/17) 6:01 AM CDT (7/17)
Length of Visible Light 16h 20m
Length of Day
15h 09m
Full, 99% of the Moon is Illuminated
Jul 17
Full
Jul 24
Last Quarter
Jul 31
New
Aug 7
First Quarter
Aug 15
Full

Hourly Weather History & Observations

Time (CDT) Temp. Heat Index Dew Point Humidity Pressure Visibility Wind Dir Wind Speed Gust Speed Precip Events Conditions
12:15 AM 70.7 °F - 70.7 °F 100% 29.92 in 10.0 mi Calm Calm - N/A   Clear
12:35 AM 70.0 °F - 70.0 °F 100% 29.91 in 10.0 mi Calm Calm - N/A   Clear
12:55 AM 70.7 °F - 70.7 °F 100% 29.93 in 10.0 mi Calm Calm - N/A   Clear
1:15 AM 69.6 °F - 69.6 °F 100% 29.92 in 10.0 mi Calm Calm - N/A   Scattered Clouds
1:35 AM 69.4 °F - 69.4 °F 100% 29.93 in 10.0 mi Calm Calm - N/A   Mostly Cloudy
1:55 AM 69.1 °F - 69.1 °F 100% 29.91 in 10.0 mi Calm Calm - N/A   Mostly Cloudy
2:15 AM 68.9 °F - 68.9 °F 100% 29.91 in 10.0 mi Calm Calm - N/A   Scattered Clouds
2:35 AM 69.4 °F - 69.4 °F 100% 29.93 in 10.0 mi Calm Calm - N/A   Clear
2:55 AM 68.7 °F - 68.7 °F 100% 29.93 in 10.0 mi NE 3.5 mph - N/A   Scattered Clouds
3:15 AM 68.0 °F - 68.0 °F 100% 29.94 in 10.0 mi Calm Calm - N/A   Clear
3:35 AM 68.2 °F - 68.2 °F 100% 29.94 in 10.0 mi North 3.5 mph - N/A   Scattered Clouds
3:55 AM 67.6 °F - 67.6 °F 100% 29.94 in 10.0 mi North 3.5 mph - N/A   Scattered Clouds
4:15 AM 67.1 °F - 67.1 °F 100% 29.94 in 10.0 mi NE 3.5 mph - N/A   Clear
4:35 AM 66.6 °F - 66.6 °F 100% 29.94 in 10.0 mi Calm Calm - N/A   Clear
4:55 AM 66.2 °F - 66.2 °F 100% 29.95 in 10.0 mi Calm Calm - N/A   Clear
5:15 AM 66.2 °F - 66.2 °F 100% 29.95 in 10.0 mi Calm Calm - N/A   Clear
5:35 AM 66.0 °F - 66.0 °F 100% 29.96 in 10.0 mi Calm Calm - N/A   Clear
5:55 AM 65.5 °F - 65.5 °F 100% 29.96 in 10.0 mi Calm Calm - N/A   Clear
6:15 AM 66.2 °F - 66.2 °F 100% 29.96 in 10.0 mi Calm Calm - N/A   Clear
6:35 AM 66.4 °F - 66.0 °F 99% 29.95 in 10.0 mi NE 3.5 mph - N/A   Clear
6:55 AM 67.5 °F - 66.0 °F 95% 29.95 in 10.0 mi NE 4.6 mph - N/A   Clear
7:15 AM 68.4 °F - 65.3 °F 90% 29.94 in 10.0 mi ENE 5.8 mph - N/A   Clear
7:35 AM 70.0 °F - 66.2 °F 88% 29.95 in 10.0 mi ENE 3.5 mph - N/A   Clear
7:55 AM 70.9 °F - 66.2 °F 85% 29.96 in 10.0 mi East 4.6 mph - N/A   Clear
8:15 AM 72.0 °F - 66.6 °F 83% 29.96 in 10.0 mi East 6.9 mph - N/A   Clear
8:35 AM 73.0 °F - 67.6 °F 83% 29.97 in 10.0 mi East 9.2 mph - N/A   Clear
8:55 AM 73.4 °F - 67.5 °F 82% 29.97 in 10.0 mi East 6.9 mph - N/A   Clear
9:15 AM 74.8 °F - 68.0 °F 79% 29.97 in 10.0 mi ENE 5.8 mph - N/A   Clear
9:35 AM 75.0 °F - 68.2 °F 79% 29.97 in 10.0 mi East 6.9 mph - N/A   Clear
9:55 AM 76.3 °F - 68.4 °F 76% 29.97 in 10.0 mi East 5.8 mph - N/A   Clear
10:15 AM 77.2 °F - 68.5 °F 75% 29.97 in 10.0 mi East 5.8 mph - N/A   Clear
10:35 AM 77.5 °F - 68.4 °F 73% 29.96 in 10.0 mi East 6.9 mph - N/A   Clear
10:55 AM 78.4 °F - 68.2 °F 71% 29.96 in 10.0 mi East 8.1 mph - N/A   Scattered Clouds
11:15 AM 78.4 °F - 68.0 °F 70% 29.96 in 10.0 mi East 6.9 mph - N/A   Scattered Clouds
11:35 AM 79.7 °F - 68.4 °F 68% 29.96 in 10.0 mi East 9.2 mph - N/A   Scattered Clouds
11:55 AM 79.9 °F - 67.6 °F 66% 29.97 in 10.0 mi ESE 6.9 mph - N/A   Mostly Cloudy
12:15 PM 79.9 °F - 68.7 °F 69% 29.96 in 10.0 mi ESE 9.2 mph - N/A   Mostly Cloudy
12:35 PM 80.1 °F 82.9 °F 69.1 °F 69% 29.96 in 10.0 mi ESE 8.1 mph - N/A   Mostly Cloudy
12:55 PM 81.1 °F 84.5 °F 69.6 °F 68% 29.96 in 10.0 mi SE 6.9 mph - N/A   Mostly Cloudy
1:15 PM 81.5 °F 84.9 °F 69.4 °F 67% 29.95 in 10.0 mi SSE 6.9 mph - N/A   Scattered Clouds
1:35 PM 81.3 °F 84.6 °F 69.6 °F 67% 29.95 in 10.0 mi ESE 6.9 mph - N/A   Scattered Clouds
1:55 PM 80.8 °F 84.1 °F 69.6 °F 69% 29.94 in 10.0 mi SSE 10.4 mph 16.1 mph N/A   Scattered Clouds
2:15 PM 80.8 °F 84.2 °F 70.2 °F 70% 29.94 in 10.0 mi ESE 8.1 mph - N/A   Scattered Clouds
2:35 PM 80.8 °F 84.2 °F 70.3 °F 70% 29.93 in 10.0 mi ESE 8.1 mph - N/A   Mostly Cloudy
2:55 PM 80.8 °F 84.4 °F 70.7 °F 71% 29.91 in 10.0 mi East 13.8 mph - N/A   Scattered Clouds
3:15 PM 79.7 °F - 70.9 °F 74% 29.91 in 10.0 mi East 13.8 mph 18.4 mph N/A   Scattered Clouds
3:35 PM 79.0 °F - 70.7 °F 76% 29.91 in 10.0 mi East 12.7 mph - N/A   Scattered Clouds
3:55 PM 78.1 °F - 70.2 °F 77% 29.89 in 10.0 mi East 11.5 mph - N/A   Clear
4:15 PM 77.4 °F - 70.2 °F 78% 29.88 in 10.0 mi East 11.5 mph - N/A   Scattered Clouds
4:35 PM 77.4 °F - 70.3 °F 79% 29.88 in 10.0 mi East 11.5 mph 17.3 mph N/A   Clear
4:55 PM 77.4 °F - 70.5 °F 79% 29.89 in 10.0 mi East 10.4 mph - N/A   Scattered Clouds
5:15 PM 77.9 °F - 71.2 °F 80% 29.89 in 10.0 mi East 9.2 mph - N/A   Scattered Clouds
5:35 PM 77.9 °F - 71.6 °F 81% 29.87 in 7.0 mi ESE 9.2 mph - N/A   Clear
5:55 PM 77.9 °F - 72.0 °F 82% 29.88 in 7.0 mi ESE 5.8 mph - N/A   Clear
6:15 PM 77.0 °F - 69.3 °F 77% 29.88 in 10.0 mi SE 9.2 mph - N/A   Mostly Cloudy
6:35 PM 75.7 °F - 68.9 °F 79% 29.88 in 10.0 mi ESE 9.2 mph 16.1 mph N/A   Mostly Cloudy
6:55 PM 75.7 °F - 70.2 °F 83% 29.88 in 10.0 mi SE 5.8 mph - N/A   Scattered Clouds
7:15 PM 75.2 °F - 70.7 °F 86% 29.88 in 10.0 mi SE 9.2 mph - N/A   Mostly Cloudy
7:35 PM 74.5 °F - 69.8 °F 85% 29.87 in 10.0 mi ESE 4.6 mph - N/A   Mostly Cloudy
7:55 PM 74.5 °F - 69.8 °F 85% 29.86 in 10.0 mi ESE 6.9 mph - N/A   Scattered Clouds
8:15 PM 73.8 °F - 70.2 °F 88% 29.87 in 10.0 mi SE 4.6 mph - N/A   Scattered Clouds
8:35 PM 72.9 °F - 70.9 °F 93% 29.87 in 10.0 mi SE 3.5 mph - N/A   Clear
8:55 PM 72.1 °F - 71.6 °F 98% 29.87 in 10.0 mi SE 3.5 mph - N/A   Clear
9:15 PM 71.6 °F - 71.6 °F 100% 29.87 in 10.0 mi ESE 4.6 mph - N/A   Clear
9:35 PM 71.1 °F - 71.1 °F 100% 29.87 in 10.0 mi ESE 4.6 mph - N/A   Clear
9:55 PM 70.7 °F - 70.7 °F 100% 29.87 in 10.0 mi SE 4.6 mph - N/A   Scattered Clouds
10:15 PM 70.9 °F - 70.9 °F 100% 29.87 in 10.0 mi SE 4.6 mph - N/A   Mostly Cloudy
10:35 PM 70.9 °F - 70.9 °F 100% 29.87 in 10.0 mi SE 3.5 mph - N/A   Mostly Cloudy
10:55 PM 71.1 °F - 71.1 °F 100% 29.87 in 10.0 mi SE 4.6 mph - N/A   Overcast
11:15 PM 70.9 °F - 70.9 °F 100% 29.87 in 10.0 mi SSE 3.5 mph - N/A   Scattered Clouds
11:35 PM 70.3 °F - 70.3 °F 100% 29.87 in 10.0 mi South 3.5 mph - N/A   Clear
11:55 PM 70.9 °F - 70.9 °F 100% 29.86 in 10.0 mi SSE 4.6 mph - N/A   Clear